EW3949 Bellaria IT current weather conditions

sailwx.info

Wind from 262 at 13 knots gusting 26

Air temperature 2.2° C
Dewpoint 0.8° C

Last reported at 2019-Dec-13 23:04 UTC.
Time now 2019-Dec-14 00:01 UTC

Location: N 44°10' E 012°27'.
View on Google Maps.

See reports from other nearby stations

  
Tides and Currents Weather Stations Pressure Air Temp Water Temp Dewpoint Dewpoint Depression Visibility Wind Speed Wind Dir Waves Ship Positions
date/time (UTC)wind fromknots sea level pressurealtimeterstation pressurevisibilityair tempwater tempwave heightnotes
2019-Dec-13 23:04 262 13 gusting 26 2.2
2019-Dec-13 22:54 265 14 gusting 27 2.2
2019-Dec-13 22:49 274 10 gusting 23 2.2
2019-Dec-13 22:44 271 10 gusting 19 2.2
2019-Dec-13 22:39 278 13 gusting 19 2.2
2019-Dec-13 22:34 255 17 gusting 24 2.8
2019-Dec-13 22:29 271 16 gusting 21 2.8
2019-Dec-13 22:24 278 13 gusting 22 2.8
2019-Dec-13 22:19 285 17 gusting 20 2.8
2019-Dec-13 22:14 272 9 gusting 19 2.8
2019-Dec-13 22:09 278 12 gusting 18 2.8
2019-Dec-13 22:04 276 21 gusting 25 2.8
2019-Dec-13 21:59 269 13 gusting 22 2.8
2019-Dec-13 21:54 271 11 gusting 26 3.3
2019-Dec-13 21:49 288 19 gusting 26 3.3
2019-Dec-13 21:44 283 19 gusting 25 3.3
2019-Dec-13 21:39 262 13 gusting 24 3.3
2019-Dec-13 21:34 289 13 gusting 26 3.3
2019-Dec-13 21:29 280 15 gusting 29 3.3
2019-Dec-13 21:24 279 18 gusting 25 3.3
2019-Dec-13 21:19 273 20 gusting 27 3.3
2019-Dec-13 21:14 291 24 gusting 26 3.3
2019-Dec-13 21:09 292 5 gusting 25 3.3
2019-Dec-13 21:04 296 12 gusting 20 3.3
2019-Dec-13 20:59 316 8 gusting 24 3.3
2019-Dec-13 20:54 253 13 gusting 24 3.3
2019-Dec-13 20:49 264 17 gusting 25 3.3
2019-Dec-13 20:44 288 20 gusting 24 2.8
2019-Dec-13 20:39 311 17 gusting 23 2.8
2019-Dec-13 20:34 262 12 gusting 22 2.8
2019-Dec-13 20:29 275 14 gusting 24 3.3
2019-Dec-13 20:24 300 15 gusting 27 3.3
2019-Dec-13 20:19 283 13 gusting 28 3.3
2019-Dec-13 20:14 274 17 gusting 24 3.3
2019-Dec-13 20:09 311 13 gusting 23 3.9
2019-Dec-13 20:04 281 13 gusting 19 3.9
2019-Dec-13 19:59 285 15 gusting 22 3.9
2019-Dec-13 19:54 281 11 gusting 19 3.9
2019-Dec-13 19:49 297 15 gusting 17 3.9
2019-Dec-13 19:44 290 6 gusting 16 3.9
2019-Dec-13 19:39 271 10 gusting 17 3.9
2019-Dec-13 19:34 280 6 gusting 18 3.3
2019-Dec-13 19:29 271 13 gusting 18 3.3
2019-Dec-13 19:24 283 12 gusting 16 3.3
2019-Dec-13 19:19 319 5 gusting 19 3.3
2019-Dec-13 19:14 253 10 gusting 22 3.3
2019-Dec-13 19:09 257 13 gusting 22 3.3
2019-Dec-13 19:04 257 9 gusting 19 3.3
2019-Dec-13 18:59 241 15 gusting 25 3.3
2019-Dec-13 18:54 255 11 gusting 23 2.8
2019-Dec-13 18:49 276 13 gusting 25 2.8
2019-Dec-13 18:44 230 12 gusting 20 2.8
2019-Dec-13 18:39 282 18 gusting 22 2.8
2019-Dec-13 18:34 281 12 gusting 21 2.8
2019-Dec-13 18:29 276 21 gusting 25 2.8
2019-Dec-13 18:24 297 19 gusting 21 2.2
2019-Dec-13 18:19 266 13 gusting 22 2.2
2019-Dec-13 18:14 262 13 gusting 21 2.2
2019-Dec-13 18:09 249 11 gusting 23 2.2
2019-Dec-13 18:04 290 15 gusting 23 2.2
2019-Dec-13 17:59 262 14 gusting 24 2.2
2019-Dec-13 17:54 258 16 gusting 22 2.2
2019-Dec-13 17:49 259 8 gusting 28 2.2
2019-Dec-13 17:44 303 20 gusting 23 2.2
2019-Dec-13 17:39 268 14 gusting 30 2.2
2019-Dec-13 17:34 291 13 gusting 29 2.2
2019-Dec-13 17:29 296 14 gusting 24 2.2
2019-Dec-13 17:24 266 15 gusting 28 2.2
2019-Dec-13 17:19 261 13 gusting 29 1.7
2019-Dec-13 17:14 278 9 gusting 24 1.7
2019-Dec-13 17:09 273 11 gusting 25 1.7
2019-Dec-13 17:04 274 19 gusting 27 1.1
2019-Dec-13 16:59 285 15 gusting 22 1.1
2019-Dec-13 16:54 266 9 gusting 30 1.1
2019-Dec-13 16:49 278 24 gusting 28 1.1
2019-Dec-13 16:44 269 13 gusting 28 1.1
2019-Dec-13 16:39 262 27 gusting 27 1.1
2019-Dec-13 16:34 301 21 gusting 25 1.1
2019-Dec-13 16:29 260 18 gusting 31 1.1
2019-Dec-13 16:24 256 24 gusting 28 1.1
2019-Dec-13 16:19 300 20 gusting 32 1.1
2019-Dec-13 16:14 282 23 gusting 32 1.1
2019-Dec-13 16:09 246 16 gusting 33 1.1
2019-Dec-13 16:04 268 19 gusting 31 1.1
2019-Dec-13 15:59 311 17 gusting 28 1.1
2019-Dec-13 15:54 278 19 gusting 37 1.1
2019-Dec-13 15:49 254 11 gusting 34 1.1
2019-Dec-13 15:44 274 14 gusting 37 1.1
2019-Dec-13 15:39 275 19 gusting 33 1.7
2019-Dec-13 15:34 295 19 gusting 32 1.7
2019-Dec-13 15:29 273 21 gusting 33 1.7
2019-Dec-13 15:24 267 22 gusting 29 1.7
2019-Dec-13 15:19 274 13 gusting 27 1.7
2019-Dec-13 15:14 270 22 gusting 34 1.7
2019-Dec-13 15:09 281 10 gusting 32 1.7
2019-Dec-13 15:04 289 31 gusting 37 1.7
2019-Dec-13 14:59 281 33 gusting 29 1.7
2019-Dec-13 14:54 258 2 gusting 26 2.2
2019-Dec-13 14:49 281 18 gusting 31 2.2
2019-Dec-13 14:44 285 18 gusting 27 2.2
2019-Dec-13 14:39 296 14 gusting 28 2.8
2019-Dec-13 14:34 283 13 gusting 27 3.9
2019-Dec-13 14:29 229 9 gusting 24 6.1
2019-Dec-13 14:24 277 13 gusting 28 7.8
2019-Dec-13 14:19 126 6 gusting 15 8.9
2019-Dec-13 14:14 110 9 gusting 19 8.9
2019-Dec-13 14:09 092 15 gusting 17 8.9
2019-Dec-13 14:04 106 9 gusting 13 8.9
2019-Dec-13 13:59 163 6 gusting 15 8.9
2019-Dec-13 13:54 144 5 gusting 14 8.9
2019-Dec-13 13:49 138 4 gusting 10 8.9
2019-Dec-13 13:44 161 3 gusting 13 8.9
2019-Dec-13 13:39 155 13 gusting 13 8.9
2019-Dec-13 13:34 140 4 gusting 11 8.3
2019-Dec-13 13:29 072 6 gusting 9 8.3
2019-Dec-13 13:24 089 4 gusting 9 8.3
2019-Dec-13 13:19 135 6 gusting 13 8.3
2019-Dec-13 13:14 157 6 gusting 12 8.3
2019-Dec-13 13:09 132 4 gusting 13 8.3
2019-Dec-13 13:04 141 6 gusting 12 8.3
2019-Dec-13 12:59 139 9 gusting 13 8.3
2019-Dec-13 12:54 124 7 gusting 13 8.3
2019-Dec-13 12:49 132 5 gusting 14 8.3
2019-Dec-13 12:44 143 7 gusting 16 8.9
2019-Dec-13 12:39 131 12 gusting 15 8.9
2019-Dec-13 12:34 139 8 gusting 19 8.9
2019-Dec-13 12:29 130 11 gusting 18 8.9
2019-Dec-13 12:24 143 13 gusting 15 8.9
2019-Dec-13 12:19 108 9 gusting 15 8.9
2019-Dec-13 12:14 150 8 gusting 13 8.9
2019-Dec-13 12:09 134 9 gusting 13 8.9
2019-Dec-13 12:04 139 9 gusting 13 8.9
2019-Dec-13 11:59 135 10 gusting 12 9.4
2019-Dec-13 11:54 140 7 gusting 12 9.4
2019-Dec-13 11:49 141 6 gusting 14 8.9
2019-Dec-13 11:44 141 9 gusting 15 8.9
2019-Dec-13 11:39 112 13 gusting 15 8.9
2019-Dec-13 11:34 159 9 gusting 14 8.9
2019-Dec-13 11:29 142 7 gusting 14 8.9
2019-Dec-13 11:24 138 9 gusting 15 8.9
2019-Dec-13 11:19 105 8 gusting 15 8.9
2019-Dec-13 11:14 108 5 gusting 11 8.9
2019-Dec-13 11:09 160 8 gusting 12 8.9
2019-Dec-13 11:04 142 11 gusting 16 8.9
2019-Dec-13 10:59 131 12 gusting 16 8.9
2019-Dec-13 10:54 157 10 gusting 14 8.9
2019-Dec-13 10:49 139 9 gusting 14 8.9
2019-Dec-13 10:44 140 7 gusting 13 8.9
2019-Dec-13 10:39 179 4 gusting 11 8.9
2019-Dec-13 10:34 159 6 gusting 13 8.9
2019-Dec-13 10:29 189 5 gusting 12 8.9
2019-Dec-13 10:24 087 6 gusting 13 8.9
2019-Dec-13 10:19 103 6 gusting 14 8.9
2019-Dec-13 10:14 127 6 gusting 13 8.9
2019-Dec-13 10:09 139 3 gusting 12 8.9
2019-Dec-13 10:04 160 9 gusting 13 8.3
2019-Dec-13 09:59 203 3 gusting 13 8.3
2019-Dec-13 09:54 120 5 gusting 13 8.3
2019-Dec-13 09:49 169 12 gusting 12 8.3
2019-Dec-13 09:44 129 6 gusting 14 8.3
2019-Dec-13 09:39 138 9 gusting 16 8.3
2019-Dec-13 09:34 148 11 gusting 13 7.8
2019-Dec-13 09:29 117 12 gusting 13 7.8
2019-Dec-13 09:24 174 8 gusting 14 7.8
2019-Dec-13 09:19 146 4 gusting 13 7.8
2019-Dec-13 09:14 103 9 gusting 14 7.8
2019-Dec-13 09:09 114 13 gusting 16 8.3
2019-Dec-13 09:04 144 11 gusting 16 8.3
2019-Dec-13 08:59 158 4 gusting 12 8.3
2019-Dec-13 08:54 057 5 gusting 11 7.8
2019-Dec-13 08:49 108 6 gusting 12 7.8
2019-Dec-13 08:44 089 6 gusting 16 7.8
2019-Dec-13 08:39 131 6 gusting 12 7.8
2019-Dec-13 08:34 063 6 gusting 13 7.8
2019-Dec-13 08:29 137 8 gusting 12 7.8
2019-Dec-13 08:24 079 4 gusting 15 7.8
2019-Dec-13 08:19 098 9 gusting 14 7.8
2019-Dec-13 08:14 117 11 gusting 11 7.8
2019-Dec-13 08:09 101 6 gusting 11 7.8
2019-Dec-13 08:04 088 6 gusting 13 7.8
2019-Dec-13 07:59 105 7 gusting 13 7.8
2019-Dec-13 07:54 150 6 gusting 15 7.2
2019-Dec-13 07:49 119 9 gusting 14 7.2
2019-Dec-13 07:44 070 5 gusting 15 7.2
2019-Dec-13 07:39 139 9 gusting 14 7.2
2019-Dec-13 07:34 058 7 gusting 11 7.2
2019-Dec-13 07:29 099 9 gusting 11 7.2
2019-Dec-13 07:24 120 9 gusting 13 7.2
2019-Dec-13 07:19 092 6 gusting 13 7.2
2019-Dec-13 07:14 133 4 gusting 11 7.2
2019-Dec-13 07:09 132 8 gusting 11 7.2
2019-Dec-13 07:04 124 7 gusting 9 6.7
2019-Dec-13 06:59 097 5 gusting 12 6.7
2019-Dec-13 06:54 182 11 gusting 12 6.7
2019-Dec-13 06:49 140 6 gusting 11 6.7
2019-Dec-13 06:44 132 6 gusting 13 6.7
2019-Dec-13 06:39 089 4 gusting 13 6.7
2019-Dec-13 06:34 153 6 gusting 10 6.1
2019-Dec-13 06:29 127 7 gusting 13 6.1
2019-Dec-13 06:24 130 13 gusting 13 6.1
2019-Dec-13 06:19 125 8 gusting 12 6.1
2019-Dec-13 06:14 130 6 gusting 12 6.1
2019-Dec-13 06:09 116 6 gusting 11 5.6
2019-Dec-13 06:04 115 8 gusting 9 5.0
2019-Dec-13 05:59 142 4 gusting 6 4.4
2019-Dec-13 05:54 104 2 gusting 5 4.4
2019-Dec-13 05:49 137 5 gusting 9 5.0
2019-Dec-13 05:44 132 6 gusting 6 4.4
2019-Dec-13 05:39 139 2 gusting 6 4.4
2019-Dec-13 05:34 134 1 gusting 5 3.9
2019-Dec-13 05:29 142 2 gusting 4 3.9
2019-Dec-13 05:24 145 4 gusting 5 3.9
2019-Dec-13 05:19 115 4 gusting 6 3.3
2019-Dec-13 05:14 107 3.3
2019-Dec-13 05:09 136 1 gusting 5 3.3
2019-Dec-13 05:04 138 3.3
2019-Dec-13 04:59 137 1 gusting 5 3.3
2019-Dec-13 04:54 141 4 gusting 6 3.3
2019-Dec-13 04:49 147 6 gusting 6 3.3
2019-Dec-13 04:44 174 1 gusting 5 3.3
2019-Dec-13 04:39 139 2 gusting 6 3.3
2019-Dec-13 04:34 129 5 gusting 6 3.3
2019-Dec-13 04:29 144 3 gusting 5 2.8
2019-Dec-13 04:24 139 0 gusting 5 2.8
2019-Dec-13 04:19 108 2 gusting 5 2.2
2019-Dec-13 04:14 146 1 gusting 4 2.2
2019-Dec-13 04:09 150 0 gusting 6 1.7
2019-Dec-13 04:04 146 2 gusting 5 1.1
2019-Dec-13 03:59 161 2 gusting 4 1.1
2019-Dec-13 03:54 212 4 gusting 4 1.7
2019-Dec-13 03:49 210 3 gusting 4 1.7
2019-Dec-13 03:44 194 1 gusting 4 2.2
2019-Dec-13 03:39 142 2 gusting 4 2.2
2019-Dec-13 03:34 146 2.2
2019-Dec-13 03:29 126 2 gusting 6 1.7
2019-Dec-13 03:24 162 5 gusting 6 1.7
2019-Dec-13 03:19 170 2 gusting 6 1.7
2019-Dec-13 03:14 158 6 gusting 6 1.1
2019-Dec-13 03:04 162 4 gusting 6 1.1
2019-Dec-13 02:59 163 3 gusting 6 1.1
2019-Dec-13 02:54 170 4 gusting 6 1.1
2019-Dec-13 02:49 204 6 gusting 6 1.1
2019-Dec-13 02:44 172 5 gusting 6 1.1
2019-Dec-13 02:39 165 5 gusting 6 1.1
2019-Dec-13 02:34 155 6 gusting 6 1.1
2019-Dec-13 02:29 162 6 gusting 6 1.1
2019-Dec-13 02:24 160 5 gusting 6 1.1
2019-Dec-13 02:19 167 4 gusting 6 1.1
2019-Dec-13 02:14 186 2 gusting 6 1.1
2019-Dec-13 02:09 160 4 gusting 6 1.1
2019-Dec-13 02:04 186 5 gusting 6 1.1
2019-Dec-13 01:59 144 4 gusting 6 1.1
2019-Dec-13 01:54 185 5 gusting 5 1.1
2019-Dec-13 01:49 187 4 gusting 5 1.1
2019-Dec-13 01:44 203 3 gusting 6 1.1
2019-Dec-13 01:39 196 5 gusting 5 1.1
2019-Dec-13 01:34 220 5 gusting 6 1.1
2019-Dec-13 01:24 201 1 gusting 3 1.7
2019-Dec-13 01:19 205 2 gusting 3 1.7
2019-Dec-13 01:14 215 2 gusting 2 1.7
2019-Dec-13 01:09 169 1.7
2019-Dec-13 01:04 224 0 gusting 2 2.2
2019-Dec-13 00:59 226 2 gusting 2 2.2
2019-Dec-13 00:54 231 2 gusting 2 1.7
2019-Dec-13 00:49 238 1 gusting 2 1.7
2019-Dec-13 00:44 242 2 gusting 2 1.7
2019-Dec-13 00:39 243 1 gusting 1 1.7
2019-Dec-13 00:34 243 1 gusting 1 1.7
2019-Dec-13 00:29 259 0 gusting 1 2.2
2019-Dec-13 00:24 259 0 gusting 2 2.2
2019-Dec-13 00:19 251 2 gusting 2 2.2
2019-Dec-13 00:14 274 1 gusting 3 2.2
2019-Dec-13 00:09 253 3 gusting 4 2.2
2019-Dec-13 00:04 251 3 gusting 4 2.2
2019-Dec-12 23:59 248 3 gusting 5 2.2
2019-Dec-12 23:54 267 3 gusting 4 2.2
2019-Dec-12 23:49 246 2 gusting 4 2.2
2019-Dec-12 23:44 255 3 gusting 3 2.2
2019-Dec-12 23:39 227 1 gusting 4 2.8
2019-Dec-12 23:34 203 3 gusting 4 2.8
2019-Dec-12 23:29 207 3 gusting 4 2.8
2019-Dec-12 23:24 211 4 gusting 4 2.8
2019-Dec-12 23:19 219 4 gusting 4 2.8
2019-Dec-12 23:14 232 3 gusting 3 2.8
2019-Dec-12 23:09 243 2 gusting 2 2.8
2019-Dec-12 23:04 250 1 gusting 3 2.8
2019-Dec-12 22:59 249 2 gusting 4 3.3
2019-Dec-12 22:54 248 3 gusting 4 3.3
2019-Dec-12 22:49 256 2 gusting 6 3.3
2019-Dec-12 22:44 237 4 gusting 6 3.3
2019-Dec-12 22:39 243 3 gusting 5 3.3
2019-Dec-12 22:34 245 4 gusting 5 3.3
2019-Dec-12 22:29 250 3 gusting 3 3.3
2019-Dec-12 22:24 245 2 gusting 3 3.3
2019-Dec-12 22:19 250 3 gusting 3 3.3
2019-Dec-12 22:14 251 2 gusting 2 3.3
2019-Dec-12 22:09 250 1 gusting 2 3.3
2019-Dec-12 22:04 252 0 gusting 2 3.3
2019-Dec-12 21:59 240 1 gusting 2 3.3
2019-Dec-12 21:54 228 1 gusting 2 3.3
2019-Dec-12 21:49 225 2 gusting 3 3.3
2019-Dec-12 21:44 227 2 gusting 3 2.8
2019-Dec-12 21:39 223 2 gusting 3 2.8
2019-Dec-12 21:34 217 2 gusting 3 2.8
2019-Dec-12 21:29 215 1 gusting 3 2.8
2019-Dec-12 21:24 222 2 gusting 3 2.8
2019-Dec-12 21:19 233 2 gusting 3 2.8
2019-Dec-12 21:14 219 2 gusting 3 2.8
2019-Dec-12 21:09 230 1 gusting 3 2.8
2019-Dec-12 21:04 225 1 gusting 4 2.8
2019-Dec-12 20:59 212 0 gusting 3 2.8
2019-Dec-12 20:54 235 1 gusting 4 2.8
2019-Dec-12 20:49 266 1 gusting 3 2.8
2019-Dec-12 20:44 237 3 gusting 6 2.8
2019-Dec-12 20:39 228 3 gusting 6 2.2
2019-Dec-12 20:34 226 3 gusting 5 2.2
2019-Dec-12 20:29 224 4 gusting 5 2.2
2019-Dec-12 20:24 233 2 gusting 4 2.2
2019-Dec-12 20:19 240 2 gusting 4 2.2
2019-Dec-12 20:14 235 1 gusting 4 2.2
2019-Dec-12 20:09 229 4 gusting 5 2.2
2019-Dec-12 20:04 239 2 gusting 4 2.2
2019-Dec-12 19:59 238 2 gusting 5 2.2
2019-Dec-12 19:54 238 3 gusting 4 2.2
2019-Dec-12 19:49 247 3 gusting 6 2.2
2019-Dec-12 19:44 249 3 gusting 6 2.2
2019-Dec-12 19:39 239 4 gusting 5 2.2
2019-Dec-12 19:34 247 2 gusting 5 2.2
2019-Dec-12 19:29 233 3 gusting 4 2.2
2019-Dec-12 19:24 248 2 gusting 6 2.2
2019-Dec-12 19:19 252 5 gusting 6 2.2
2019-Dec-12 19:14 219 3 gusting 6 2.2
2019-Dec-12 19:09 266 5 gusting 8 2.2
2019-Dec-12 19:04 240 6 gusting 7 1.7
2019-Dec-12 18:59 240 5 gusting 7 1.7
2019-Dec-12 18:54 257 3 gusting 7 1.7
2019-Dec-12 18:49 258 6 gusting 7 1.7
2019-Dec-12 18:44 255 6 gusting 9 1.7
2019-Dec-12 18:39 258 8 gusting 8 1.7
2019-Dec-12 18:34 260 6 gusting 13 1.7
2019-Dec-12 18:29 275 6 gusting 13 1.7
2019-Dec-12 18:24 277 2 gusting 6 1.7
2019-Dec-12 18:19 262 3 gusting 6 1.7
2019-Dec-12 18:14 250 5 gusting 8 1.7
2019-Dec-12 18:09 285 2 gusting 8 1.7
2019-Dec-12 18:04 285 3 gusting 7 1.7
2019-Dec-12 17:59 266 2 gusting 7 1.7
2019-Dec-12 17:54 274 2 gusting 9 1.7
2019-Dec-12 17:49 273 3 gusting 6 1.7
2019-Dec-12 17:44 269 0 gusting 5 1.7
2019-Dec-12 17:39 271 2 gusting 6 1.7
2019-Dec-12 17:34 277 2 gusting 6 1.7
2019-Dec-12 17:29 277 4 gusting 5 1.7
2019-Dec-12 17:24 283 3 gusting 4 1.7
2019-Dec-12 17:19 280 2 gusting 4 1.7
2019-Dec-12 17:14 294 2 gusting 4 1.7
2019-Dec-12 17:09 280 2 gusting 3 1.7
2019-Dec-12 17:04 270 1 gusting 4 1.7
2019-Dec-12 16:59 270 1 gusting 4 1.7
2019-Dec-12 16:54 271 2 gusting 4 1.7
2019-Dec-12 16:49 285 1 gusting 4 1.7
2019-Dec-12 16:44 286 2 gusting 4 2.2
2019-Dec-12 16:39 266 2 gusting 5 2.2
2019-Dec-12 16:34 272 2 gusting 6 2.2
2019-Dec-12 16:29 262 3 gusting 6 2.2
2019-Dec-12 16:24 255 5 gusting 7 2.2
2019-Dec-12 16:19 283 2 gusting 6 2.2
2019-Dec-12 16:14 271 2 gusting 7 2.2
2019-Dec-12 16:09 259 6 gusting 8 2.2
2019-Dec-12 16:04 287 3 gusting 5 2.2
2019-Dec-12 15:59 264 5 gusting 6 2.2
2019-Dec-12 15:54 242 3 gusting 4 2.2
2019-Dec-12 15:49 262 4 gusting 7 2.2
2019-Dec-12 15:44 271 2 gusting 6 2.2
2019-Dec-12 15:39 283 3 gusting 6 2.2
2019-Dec-12 15:34 263 3 gusting 6 2.2
2019-Dec-12 15:29 266 2 gusting 6 2.2
2019-Dec-12 15:24 267 0 gusting 8 2.2
2019-Dec-12 15:19 250 4 gusting 7 2.2
2019-Dec-12 15:14 274 1 gusting 6 2.2
2019-Dec-12 15:09 301 5 gusting 7 2.2
2019-Dec-12 15:04 261 5 gusting 6 2.2
2019-Dec-12 14:59 288 2 gusting 6 2.2
2019-Dec-12 14:54 291 4 gusting 6 2.2
2019-Dec-12 14:49 271 2 gusting 9 1.7
2019-Dec-12 14:44 281 4 gusting 7 1.7
2019-Dec-12 14:39 266 2 gusting 8 1.7
2019-Dec-12 14:34 288 4 gusting 6 1.7
2019-Dec-12 14:29 276 1 gusting 6 1.7
2019-Dec-12 14:24 248 5 gusting 6 1.7
2019-Dec-12 14:19 276 3 gusting 8 1.7
2019-Dec-12 14:14 263 3 gusting 6 1.7
2019-Dec-12 14:09 265 1 gusting 5 1.7
2019-Dec-12 14:04 282 3 gusting 6 1.7
2019-Dec-12 13:59 274 4 gusting 6 1.1
2019-Dec-12 13:54 285 2 gusting 6 1.1
2019-Dec-12 13:49 272 2 gusting 6 1.1
2019-Dec-12 13:44 272 2 gusting 6 1.1
2019-Dec-12 13:39 281 2 gusting 7 1.1
2019-Dec-12 13:34 273 1 gusting 6 1.1
2019-Dec-12 13:29 270 5 gusting 6 1.1
2019-Dec-12 13:24 285 3 gusting 7 1.1
2019-Dec-12 13:19 267 1 gusting 6 1.1
2019-Dec-12 13:14 283 2 gusting 6 1.1
2019-Dec-12 13:09 257 6 gusting 7 1.1
2019-Dec-12 13:04 287 6 gusting 6 0.6
2019-Dec-12 12:59 283 2 gusting 6 0.6
2019-Dec-12 12:54 275 6 gusting 8 0.6
2019-Dec-12 12:49 269 1 gusting 5 0.6
2019-Dec-12 12:44 257 4 gusting 8 0.6
2019-Dec-12 12:39 284 4 gusting 9 0.6
2019-Dec-12 12:34 291 8 gusting 9 0.6
2019-Dec-12 12:29 295 2 gusting 10 0.6
2019-Dec-12 12:24 274 7 gusting 9 1.1
2019-Dec-12 12:19 277 4 gusting 8 1.1
2019-Dec-12 12:14 277 7 gusting 9 1.1
2019-Dec-12 12:09 278 7 gusting 10 1.1
2019-Dec-12 12:04 269 8 gusting 9 1.1
2019-Dec-12 11:59 291 8 gusting 8 1.1
2019-Dec-12 11:54 273 7 gusting 9 0.6
2019-Dec-12 11:49 270 2 gusting 8 0.6
2019-Dec-12 11:44 285 6 gusting 11 0.6
2019-Dec-12 11:39 271 3 gusting 9 0.6
2019-Dec-12 11:34 289 6 gusting 7 0.6
2019-Dec-12 11:29 277 3 gusting 6 0.6
2019-Dec-12 11:24 292 3 gusting 8 0.6
2019-Dec-12 11:19 270 3 gusting 9 0.6
2019-Dec-12 11:14 293 6 gusting 11 0.6
2019-Dec-12 11:09 285 3 gusting 8 0.6
2019-Dec-12 11:04 265 6 gusting 9 0.6
2019-Dec-12 10:59 275 4 gusting 10 0.6
2019-Dec-12 10:54 276 6 gusting 6 0.6
2019-Dec-12 10:49 290 4 gusting 9 0.6
2019-Dec-12 10:44 275 7 gusting 9 0.6
2019-Dec-12 10:39 282 5 gusting 8 0.6
2019-Dec-12 10:34 271 3 gusting 10 0.6
2019-Dec-12 10:29 276 4 gusting 8 0.6
2019-Dec-12 10:24 276 5 gusting 9 0.6
2019-Dec-12 10:19 234 1 gusting 6 0.6
2019-Dec-12 10:14 285 4 gusting 6 0.6
2019-Dec-12 10:09 271 2 gusting 7 0.6
2019-Dec-12 10:04 297 3 gusting 8 0.6
2019-Dec-12 09:59 278 5 gusting 9 0.6
2019-Dec-12 09:54 271 3 gusting 10 0.6
2019-Dec-12 09:49 289 8 gusting 9 1.1
2019-Dec-12 09:44 257 2 gusting 10 1.1
2019-Dec-12 09:39 283 9 gusting 9 1.7
2019-Dec-12 09:34 270 2 gusting 6 1.7
2019-Dec-12 09:29 286 3 gusting 6 2.2
2019-Dec-12 09:24 283 2 gusting 6 2.8
2019-Dec-12 09:19 305 1 gusting 6 3.3
2019-Dec-12 09:14 315 6 gusting 8 3.3
2019-Dec-12 09:09 316 6 gusting 6 3.3
2019-Dec-12 09:04 309 5 gusting 6 3.3
2019-Dec-12 08:59 327 5 gusting 6 3.3
2019-Dec-12 08:54 330 6 gusting 6 3.3
2019-Dec-12 08:49 281 1 gusting 4 3.3
2019-Dec-12 08:44 330 2 gusting 4 2.8
2019-Dec-12 08:39 280 0 gusting 1 2.8
2019-Dec-12 08:34 295 0 gusting 0 2.8
2019-Dec-12 08:29 300 2.8
2019-Dec-12 08:24 290 2.8
2019-Dec-12 08:19 266 0 gusting 2 2.2
2019-Dec-12 08:14 261 0 gusting 1 2.8
2019-Dec-12 08:09 233 2.8
2019-Dec-12 08:04 252 2.8
2019-Dec-12 07:59 085 0 gusting 2 2.2
2019-Dec-12 07:54 285 1 gusting 4 2.2
2019-Dec-12 07:49 293 2 gusting 4 2.2
2019-Dec-12 07:44 308 2 gusting 4 1.7
2019-Dec-12 07:39 304 1 gusting 3 1.7
2019-Dec-12 07:34 307 1 gusting 4 1.7
2019-Dec-12 07:29 271 0 gusting 3 1.7
2019-Dec-12 07:24 316 1 gusting 4 1.1
2019-Dec-12 07:19 296 2 gusting 4 1.1
2019-Dec-12 07:09 263 4 gusting 4 1.1
2019-Dec-12 07:04 254 3 gusting 4 1.1
2019-Dec-12 06:59 257 3 gusting 4 1.1
2019-Dec-12 06:54 256 3 gusting 5 1.1
2019-Dec-12 06:49 245 4 gusting 5 0.6
2019-Dec-12 06:44 242 5 gusting 5 0.6
2019-Dec-12 06:39 227 2 gusting 5 0.6
2019-Dec-12 06:34 229 4 gusting 4 0.6
2019-Dec-12 06:29 248 3 gusting 4 0.6
2019-Dec-12 06:24 257 4 gusting 5 0.6
2019-Dec-12 06:19 248 4 gusting 5 0.6
2019-Dec-12 06:14 251 2 gusting 4 0.6
2019-Dec-12 06:09 238 2 gusting 3 0.6
2019-Dec-12 06:04 245 1 gusting 1 0.6
2019-Dec-12 05:59 231 0 gusting 1 0.6
2019-Dec-12 05:54 245 1 gusting 2 0.6
2019-Dec-12 05:49 242 1 gusting 2 0.6
2019-Dec-12 05:44 238 1 gusting 4 0.6
2019-Dec-12 05:39 261 2 gusting 6 0.6
2019-Dec-12 05:34 251 3 gusting 6 0.6
2019-Dec-12 05:29 254 6 gusting 6 0.6
2019-Dec-12 05:24 271 3 gusting 6 0.6
2019-Dec-12 05:19 253 4 gusting 5 -0.0
2019-Dec-12 05:14 253 4 gusting 5 -0.0
2019-Dec-12 05:09 263 4 gusting 5 -0.0
2019-Dec-12 05:04 249 3 gusting 5 -0.0
2019-Dec-12 04:59 266 0 gusting 3 -0.0
2019-Dec-12 04:54 274 1 gusting 4 0.6
2019-Dec-12 04:49 262 4 gusting 6 0.6
2019-Dec-12 04:44 254 5 gusting 6 0.6
2019-Dec-12 04:39 248 4 gusting 5 0.6
2019-Dec-12 04:34 252 5 gusting 6 1.1
2019-Dec-12 04:29 245 5 gusting 5 0.6
2019-Dec-12 04:24 240 4 gusting 4 1.1
2019-Dec-12 04:19 238 3 gusting 5 1.7
2019-Dec-12 04:14 228 4 gusting 4 1.7
2019-Dec-12 04:09 230 4 gusting 4 1.7
2019-Dec-12 04:04 231 4 gusting 4 1.7
2019-Dec-12 03:59 238 4 gusting 4 1.1
2019-Dec-12 03:54 238 3 gusting 5 1.1
2019-Dec-12 03:49 230 4 gusting 5 0.6
2019-Dec-12 03:44 226 5 gusting 6 0.6
2019-Dec-12 03:39 221 6 gusting 6 0.6
2019-Dec-12 03:34 223 5 gusting 6 -0.0
2019-Dec-12 03:29 224 5 gusting 6 -0.0
2019-Dec-12 03:24 234 6 gusting 7 -0.0
2019-Dec-12 03:19 226 6 gusting 7 -0.0
2019-Dec-12 03:14 225 6 gusting 7 -0.0
2019-Dec-12 03:09 207 5 gusting 6 0.6
2019-Dec-12 03:04 226 6 gusting 6 1.1
2019-Dec-12 02:59 219 5 gusting 6 1.7
2019-Dec-12 02:54 218 5 gusting 6 1.1
2019-Dec-12 02:49 217 6 gusting 6 0.6
2019-Dec-12 02:44 213 4 gusting 4 -0.0
2019-Dec-12 02:39 211 3 gusting 4 0.6
2019-Dec-12 02:34 203 3 gusting 5 0.6
2019-Dec-12 02:29 212 2 gusting 6 0.6
2019-Dec-12 02:24 210 6 gusting 6 0.6
2019-Dec-12 02:19 215 6 gusting 8 0.6
2019-Dec-12 02:14 227 5 gusting 6 0.6
2019-Dec-12 02:09 222 6 gusting 6 0.6
2019-Dec-12 02:04 210 6 gusting 6 1.1
2019-Dec-12 01:59 211 6 gusting 6 1.1
2019-Dec-12 01:54 214 6 gusting 6 1.1
2019-Dec-12 01:49 221 5 gusting 6 0.6
2019-Dec-12 01:44 213 3 gusting 3 0.6
2019-Dec-12 01:39 245 1 gusting 6 0.6
2019-Dec-12 01:34 215 6 gusting 6 0.6
2019-Dec-12 01:29 221 6 gusting 7 0.6
2019-Dec-12 01:24 221 6 gusting 7 0.6
2019-Dec-12 01:19 221 6 gusting 7 -0.0
2019-Dec-12 01:14 223 6 gusting 6 -0.0
2019-Dec-12 01:09 231 6 gusting 7 -0.0
2019-Dec-12 01:04 222 6 gusting 6 0.6
2019-Dec-12 00:59 229 6 gusting 6 0.6
2019-Dec-12 00:54 229 6 gusting 6 1.1
2019-Dec-12 00:49 228 6 gusting 6 1.1
2019-Dec-12 00:44 230 6 gusting 6 0.6
2019-Dec-12 00:39 237 5 gusting 6 0.6
2019-Dec-12 00:34 239 6 gusting 6 0.6
2019-Dec-12 00:29 238 6 gusting 6 0.6
2019-Dec-12 00:24 234 5 gusting 6 -0.0
2019-Dec-12 00:19 238 6 gusting 6 -0.0
2019-Dec-12 00:14 229 6 gusting 6 -0.0
2019-Dec-12 00:09 234 6 gusting 6 -0.0
2019-Dec-12 00:04 233 6 gusting 6 -0.0